Waarnemingen

Advertentie
Mijn weer
Nevers, Frankrijk (7260): temperatuur & dauwpunt: 10.12.2017 02:00:00 - 16.12.2017 02:00:00 (CET)Nevers, Frankrijk (7260): temperatuur 5cm: 10.12.2017 02:00:00 - 16.12.2017 02:00:00 (CET)Nevers, Frankrijk (7260): temperatuur -20cm & temperatuur -100cm: 10.12.2017 02:00:00 - 16.12.2017 02:00:00 (CET)Nevers, Frankrijk (7260): windsnelheid & windstoten: 10.12.2017 02:00:00 - 16.12.2017 02:00:00 (CET)Nevers, Frankrijk (7260): windrichting: 10.12.2017 02:00:00 - 16.12.2017 02:00:00 (CET)Nevers, Frankrijk (7260): luchtdruk: 10.12.2017 02:00:00 - 16.12.2017 02:00:00 (CET)Nevers, Frankrijk (7260): zicht: 10.12.2017 02:00:00 - 16.12.2017 02:00:00 (CET)Nevers, Frankrijk (7260): Zonneschijnduur: 10.12.2017 02:00:00 - 16.12.2017 02:00:00 (CET)Nevers, Frankrijk (7260): neerslag: 10.12.2017 02:00:00 - 16.12.2017 02:00:00 (CET)
Datum & Tijd tt [°C] td [°C] tt 5cm [°C] tt -20cm [°C] tt -100cm [°C] ff [km/u] ff [kn] fx [km/u] fx [kn] dd ppp [hPa] vv [km] sd [min] rr [mm]
16.12.2017 02:00:00 - - - - - - - - - - - - - -
16.12.2017 01:00:00 3,7 2,5 3,0 6,9 10,0 14 8 30 16 W 1007,8 20 0 0,2
16.12.2017 00:00:00 3,8 2,3 3,1 6,9 10,0 15 8 28 15 W 1007,3 18 0 0,0
15.12.2017 23:00:00 3,8 2,3 3,0 7,0 10,0 17 9 29 16 W 1006,1 20 0 0,0
15.12.2017 22:00:00 3,6 2,4 3,0 6,9 10,0 19 10 43 23 W 1005,2 18 0 0,2
15.12.2017 21:00:00 3,6 2,3 2,7 6,9 10,0 26 14 42 23 W 1004,0 18 0 0,0
15.12.2017 20:00:00 3,3 1,7 2,7 7,0 10,1 27 15 48 26 W 1002,7 20 0 0,2
15.12.2017 19:00:00 4,6 2,9 3,9 6,9 10,0 25 13 52 28 W 1001,3 6 0 0,4
15.12.2017 18:00:00 4,8 3,0 3,8 6,9 10,0 16 8 54 29 ZW 1000,8 20 0 1,0
15.12.2017 17:00:00 7,3 3,0 6,2 6,9 10,1 19 10 40 22 ZW 999,9 20 21 0,0
15.12.2017 16:00:00 7,8 2,5 7,5 6,9 10,0 21 11 44 24 ZW 999,9 20 58 0,0
15.12.2017 15:00:00 9,1 3,3 8,3 6,9 10,1 17 9 39 21 ZW 1000,3 20 54 0,0
15.12.2017 14:00:00 8,1 2,7 7,0 6,9 10,0 23 13 40 22 ZW 1001,1 20 42 0,0
15.12.2017 13:00:00 7,2 2,9 6,7 6,9 10,1 20 11 37 20 WZW 1002,0 20 2 0,0
15.12.2017 12:00:00 6,5 2,9 6,1 6,9 10,1 19 10 39 21 ZW 1002,6 20 12 0,0
15.12.2017 11:00:00 5,8 3,0 5,1 6,9 10,1 19 10 34 18 ZW 1003,0 20 50 0,0
15.12.2017 10:00:00 4,9 2,8 3,8 6,9 10,0 13 7 25 14 ZZW 1003,0 20 55 0,0
15.12.2017 09:00:00 4,2 2,2 3,1 7,0 10,1 14 8 23 12 ZZW 1002,6 20 0 0,0
15.12.2017 08:00:00 4,0 2,2 1,9 7,0 10,1 11 6 17 9 ZZW 1002,3 20 0 0,0
15.12.2017 07:00:00 4,1 1,8 2,5 7,0 10,1 10 6 26 14 ZW 1002,0 20 0 0,0
15.12.2017 06:00:00 5,0 2,0 3,8 7,0 10,1 17 9 41 22 WZW 1001,4 20 0 0,0
15.12.2017 05:00:00 5,5 2,3 3,8 7,0 10,1 20 11 38 20 WZW 1001,4 20 0 0,0
15.12.2017 04:00:00 4,7 2,2 2,3 7,0 10,1 17 9 27 15 ZZW 1001,3 20 0 0,0
15.12.2017 03:00:00 4,1 1,5 2,3 7,0 10,1 13 7 26 14 ZZW 1001,4 20 0 0,0
15.12.2017 02:00:00 5,1 2,3 3,2 7,0 10,1 14 7 24 13 ZW 1001,5 20 0 0,0
15.12.2017 01:00:00 5,2 2,2 3,3 7,0 10,1 14 7 29 16 WZW 1001,1 20 0 0,0
15.12.2017 00:00:00 5,4 2,4 3,8 7,1 10,1 16 9 34 19 WZW 1000,2 20 0 0,0
14.12.2017 23:00:00 5,4 3,1 4,0 7,0 10,1 20 11 32 17 ZW 1000,5 20 0 0,0
14.12.2017 22:00:00 5,6 3,4 4,2 7,0 10,1 17 9 54 29 WZW 999,6 20 0 1,4
14.12.2017 21:00:00 4,9 3,7 4,3 7,0 10,1 19 10 53 28 W 1000,7 10 0 2,0
14.12.2017 20:00:00 7,4 5,5 6,2 7,0 10,1 23 12 41 22 ZW 999,2 20 0 0,2
14.12.2017 19:00:00 6,9 5,5 5,8 7,0 10,1 14 8 37 20 WZW 1000,0 14 0 1,6
14.12.2017 18:00:00 6,9 5,0 5,7 7,0 10,1 18 10 50 27 WZW 1000,4 20 0 2,3
14.12.2017 17:00:00 7,1 5,4 5,8 7,0 10,1 18 10 39 21 WZW 1001,0 7 0 1,2
14.12.2017 16:00:00 6,8 5,3 6,0 6,9 10,1 20 11 50 27 ZW 1002,2 9 0 3,0
14.12.2017 15:00:00 7,9 5,5 6,8 6,9 10,1 15 8 34 18 ZZW 1002,9 11 1 0,4
14.12.2017 14:00:00 8,9 5,8 6,0 6,9 10,1 19 11 52 28 ZZW 1003,8 20 28 0,4
14.12.2017 13:00:00 6,7 4,9 5,9 6,9 10,1 18 10 55 30 ZW 1006,0 11 0 1,0
14.12.2017 12:00:00 8,3 5,4 7,3 6,9 10,1 17 9 39 21 ZZW 1006,9 19 2 0,0
14.12.2017 11:00:00 8,0 4,0 6,4 6,9 10,1 18 10 29 16 ZZW 1008,2 20 0 0,0
14.12.2017 10:00:00 7,0 3,4 5,7 6,9 10,1 15 8 24 13 ZZW 1008,6 20 1 0,0
14.12.2017 09:00:00 6,9 2,8 4,9 6,9 10,1 13 7 27 15 ZW 1008,7 20 0 0,0
14.12.2017 08:00:00 6,5 3,6 5,0 6,8 10,1 8 4 26 14 ZW 1008,9 20 0 0,0
14.12.2017 07:00:00 7,1 3,5 5,5 6,8 10,1 16 9 34 19 WZW 1009,0 20 0 0,0
14.12.2017 06:00:00 7,3 4,1 5,7 6,8 10,1 17 9 55 30 W 1008,4 20 0 0,4
14.12.2017 05:00:00 8,5 5,2 7,6 6,7 10,1 21 12 50 27 W 1008,3 20 0 0,0
14.12.2017 04:00:00 9,3 5,8 8,8 6,7 10,1 37 20 66 36 W 1007,5 20 0 0,0
14.12.2017 03:00:00 9,8 5,4 8,7 6,6 10,1 27 14 67 36 ZW 1006,5 20 0 0,0
14.12.2017 02:00:00 9,8 5,2 8,6 6,6 10,1 30 16 64 35 WZW 1006,7 20 0 0,0
14.12.2017 01:00:00 10,4 6,7 9,1 6,5 10,2 25 14 55 30 WZW 1005,8 20 0 0,0
14.12.2017 00:00:00 10,9 7,4 9,6 6,5 10,2 31 17 61 33 WZW 1005,0 20 0 0,0
13.12.2017 23:00:00 11,7 9,1 10,1 6,5 10,2 34 19 67 36 WZW 1003,8 16 0 0,0
13.12.2017 22:00:00 11,1 9,4 9,0 6,4 10,1 30 16 63 34 ZW 1003,0 6 0 0,0
13.12.2017 21:00:00 10,3 8,2 7,0 6,4 10,2 32 17 55 30 ZZW 1002,8 9 0 0,2
13.12.2017 20:00:00 7,5 6,6 6,3 6,4 10,2 22 12 39 21 Z 1003,8 18 0 0,8
13.12.2017 19:00:00 6,8 5,9 6,3 6,4 10,2 22 12 37 20 ZZO 1005,0 12 0 1,2
13.12.2017 18:00:00 6,9 5,8 6,3 6,4 10,2 19 10 36 19 ZZO 1007,1 7 0 0,8
13.12.2017 17:00:00 7,3 5,3 6,5 6,3 10,2 20 11 40 21 Z 1008,6 20 0 0,0
13.12.2017 16:00:00 8,2 5,3 7,1 6,3 10,2 19 10 33 18 ZZW 1009,6 16 0 0,0
13.12.2017 15:00:00 8,0 5,3 7,0 6,4 10,2 17 9 38 20 Z 1010,2 20 0 0,0
13.12.2017 14:00:00 7,9 5,4 6,5 6,4 10,2 19 10 36 19 ZZW 1011,2 20 0 0,0
13.12.2017 13:00:00 7,4 5,4 4,6 6,4 10,2 21 11 42 23 ZZW 1011,9 20 0 0,0
13.12.2017 12:00:00 5,1 3,6 3,4 6,4 10,2 14 7 27 14 ZZO 1013,0 20 0 0,2
13.12.2017 11:00:00 3,7 2,2 2,8 6,5 10,2 21 11 31 17 ZO 1013,9 20 0 1,2
13.12.2017 10:00:00 3,5 1,5 2,4 6,5 10,2 19 11 29 16 ZO 1014,4 20 0 0,4
13.12.2017 09:00:00 3,6 0,5 2,3 6,5 10,2 21 12 34 18 ZZO 1015,4 20 0 0,0
13.12.2017 08:00:00 2,8 0,0 1,6 6,5 10,2 19 11 32 18 ZZO 1016,3 20 0 0,0
13.12.2017 07:00:00 2,6 0,0 0,7 6,6 10,2 20 11 29 15 Z 1017,3 20 0 0,0
13.12.2017 06:00:00 2,0 -0,4 0,7 6,6 10,2 16 9 27 15 Z 1017,6 20 0 0,0
13.12.2017 05:00:00 2,3 -0,6 0,9 6,6 10,2 18 10 25 14 Z 1017,9 20 0 0,0
13.12.2017 04:00:00 2,5 -0,4 0,8 6,6 10,2 14 8 24 13 Z 1019,0 20 0 0,0
13.12.2017 03:00:00 2,6 -0,7 0,8 6,7 10,3 14 7 22 12 Z 1019,4 20 0 0,0
13.12.2017 02:00:00 2,7 -0,6 0,5 6,7 10,2 14 8 22 12 Z 1019,4 20 0 0,0
13.12.2017 01:00:00 2,2 -0,4 0,4 6,7 10,2 10 5 16 9 ZZO 1019,9 20 0 0,0
13.12.2017 00:00:00 2,4 -0,2 0,9 6,7 10,2 9 5 23 12 Z 1020,1 20 0 0,0
12.12.2017 23:00:00 3,1 -0,4 2,0 6,7 10,2 9 5 17 9 Z 1020,0 20 0 0,0
12.12.2017 22:00:00 3,6 0,3 1,7 6,7 10,2 7 4 14 8 Z 1019,6 20 0 0,0
12.12.2017 21:00:00 3,2 -0,1 1,6 6,7 10,2 4 2 9 5 Z 1019,5 20 0 0,0
12.12.2017 20:00:00 2,8 0,5 1,0 6,7 10,2 6 4 12 7 Z 1018,9 20 0 0,0
12.12.2017 19:00:00 3,6 0,8 2,5 6,7 10,2 5 3 6 4 Z 1018,8 20 0 0,0
12.12.2017 18:00:00 3,3 1,0 1,4 6,7 10,2 3 2 4 2 ZZO 1018,1 20 0 0,0
12.12.2017 17:00:00 3,9 0,8 2,0 6,7 10,2 2 1 15 8 Z 1017,5 20 21 0,0
12.12.2017 16:00:00 6,2 -0,3 5,3 6,7 10,3 14 7 21 11 WZW 1016,7 20 52 0,0
12.12.2017 15:00:00 6,6 0,3 7,0 6,7 10,2 13 7 22 12 W 1015,7 20 57 0,0
12.12.2017 14:00:00 5,5 1,4 6,5 6,7 10,3 12 7 19 10 ZZW 1015,6 20 46 0,0
12.12.2017 13:00:00 5,1 1,8 4,1 6,8 10,2 8 4 19 10 ZZW 1015,3 20 22 0,0
12.12.2017 12:00:00 3,1 1,3 3,3 6,8 10,3 7 4 16 9 ZW 1015,6 20 0 0,0
12.12.2017 11:00:00 2,4 0,9 2,7 6,8 10,3 9 5 15 8 ZW 1015,1 20 0 0,0
12.12.2017 10:00:00 2,1 0,9 1,6 6,9 10,3 6 3 10 5 Z 1013,9 19 9 0,0
12.12.2017 09:00:00 1,9 0,7 1,2 6,9 10,3 4 2 10 5 WZW 1012,9 20 0 0,0
12.12.2017 08:00:00 1,8 0,8 0,0 6,9 10,3 8 4 14 8 W 1011,9 20 0 0,0
12.12.2017 07:00:00 1,6 0,3 0,3 6,9 10,3 9 5 14 8 WZW 1010,4 20 0 0,0
12.12.2017 06:00:00 2,5 1,2 1,4 7,0 10,3 11 6 19 10 W 1008,6 20 0 0,0
12.12.2017 05:00:00 2,3 1,1 0,6 7,0 10,3 10 5 16 8 WZW 1006,9 20 0 0,0
12.12.2017 04:00:00 2,2 0,7 0,7 7,0 10,3 9 5 18 10 WZW 1005,7 20 0 0,0
12.12.2017 03:00:00 3,1 1,5 1,3 7,0 10,3 11 6 19 10 WZW 1004,4 20 0 0,0
12.12.2017 02:00:00 3,5 1,4 2,5 7,1 10,3 11 6 17 9 W 1002,8 20 0 0,0
12.12.2017 01:00:00 3,5 1,0 2,3 7,1 10,3 10 5 23 13 W 1001,6 20 0 0,0
12.12.2017 00:00:00 3,7 0,6 2,6 7,1 10,3 12 6 26 14 W 1000,3 20 0 0,0
11.12.2017 23:00:00 4,4 0,2 3,1 7,1 10,3 16 9 31 17 W 998,1 20 0 0,0
11.12.2017 22:00:00 4,3 0,6 3,7 7,1 10,3 21 11 43 23 W 995,8 20 0 0,0
11.12.2017 21:00:00 5,1 -0,5 4,7 7,1 10,3 30 16 54 29 WNW 993,5 20 0 0,0
11.12.2017 20:00:00 6,0 0,7 5,5 7,1 10,3 29 16 53 29 WZW 991,0 20 0 0,0
11.12.2017 19:00:00 6,6 1,5 5,7 7,0 10,3 29 16 49 26 W 988,7 20 0 0,0
11.12.2017 18:00:00 7,6 2,1 6,4 7,0 10,3 31 17 57 31 WZW 986,3 20 0 0,0
11.12.2017 17:00:00 7,7 4,8 6,6 7,0 10,3 24 13 61 33 WZW 984,3 20 3 0,0
11.12.2017 16:00:00 9,6 3,6 9,2 7,0 10,3 29 16 65 35 ZW 982,7 20 0 0,0
11.12.2017 15:00:00 9,9 3,2 9,6 6,9 10,3 34 19 66 36 ZZW 981,3 20 0 0,0
11.12.2017 14:00:00 10,2 3,0 9,7 6,9 10,3 41 22 74 40 ZZW 980,1 20 0 0,0
11.12.2017 13:00:00 10,4 3,9 9,8 6,8 10,3 40 22 81 44 ZZW 979,4 20 20 0,0
11.12.2017 12:00:00 10,5 4,2 9,2 6,8 10,3 34 19 74 40 ZZW 980,1 20 0 0,0
11.12.2017 11:00:00 10,0 4,4 8,3 6,8 10,4 29 16 52 28 Z 980,1 20 0 0,0
11.12.2017 10:00:00 9,8 4,8 7,8 6,7 10,3 25 14 48 26 Z 979,4 20 0 0,0
11.12.2017 09:00:00 10,0 4,8 7,7 6,7 10,3 27 15 49 27 Z 979,0 20 0 0,0
11.12.2017 08:00:00 10,2 8,0 8,8 6,6 10,3 25 13 64 35 Z 978,0 17 0 0,8
11.12.2017 07:00:00 12,8 7,7 8,7 6,6 10,4 34 19 59 32 ZZW 976,9 20 0 0,0
11.12.2017 06:00:00 10,6 7,5 7,8 6,6 10,4 20 11 33 18 ZO 975,9 20 0 0,0
11.12.2017 05:00:00 8,7 7,0 7,5 6,5 10,4 21 11 35 19 OZO 976,6 20 0 0,6
11.12.2017 04:00:00 8,4 6,7 7,2 6,5 10,4 21 11 32 17 OZO 978,6 20 0 0,6
11.12.2017 03:00:00 8,2 6,5 6,9 6,5 10,4 19 10 36 19 OZO 980,7 20 0 0,2
11.12.2017 02:00:00 7,6 6,4 6,9 6,4 10,4 18 10 29 15 OZO 982,4 20 0 0,4
11.12.2017 01:00:00 7,8 6,4 7,0 6,4 10,4 13 7 24 13 ZO 984,4 20 0 0,0
11.12.2017 00:00:00 7,8 6,9 7,1 6,3 10,4 13 7 33 18 ZO 985,8 20 0 0,4
10.12.2017 23:00:00 8,3 6,8 7,4 6,3 10,4 20 11 34 19 Z 988,3 20 0 0,8
10.12.2017 22:00:00 8,1 7,0 7,3 6,2 10,4 15 8 23 13 ZZO 988,6 12 0 1,2
10.12.2017 21:00:00 8,0 6,8 7,2 6,2 10,4 16 8 27 14 Z 989,7 20 0 0,2
10.12.2017 20:00:00 8,1 6,6 7,2 6,1 10,4 17 9 42 23 Z 990,2 20 0 0,4
10.12.2017 19:00:00 9,2 5,6 8,6 6,0 10,4 28 15 49 26 ZZW 991,1 20 0 0,0
10.12.2017 18:00:00 9,8 4,4 8,9 6,0 10,4 27 15 56 31 ZZW 990,6 20 0 0,0
10.12.2017 17:00:00 10,8 4,7 9,5 5,9 10,4 20 11 43 23 ZZW 991,1 20 0 0,0
10.12.2017 16:00:00 11,1 6,6 10,1 5,9 10,4 20 11 47 25 ZW 991,4 20 0 0,0
10.12.2017 15:00:00 11,6 7,1 10,5 5,8 10,4 21 11 42 23 ZW 991,4 20 0 0,0
10.12.2017 14:00:00 11,9 7,6 10,7 5,8 10,4 26 14 61 33 WZW 991,9 20 0 0,0
10.12.2017 13:00:00 12,4 9,2 10,7 5,7 10,4 28 15 55 30 WZW 991,5 20 0 0,0
10.12.2017 12:00:00 11,7 9,8 9,2 5,7 10,4 29 16 60 33 ZW 991,2 19 0 1,4
10.12.2017 11:00:00 9,8 8,7 8,0 5,8 10,4 24 13 46 25 ZZW 991,7 9 0 2,2
10.12.2017 10:00:00 8,7 7,6 4,1 5,8 10,5 23 12 40 22 Z 992,1 19 0 0,8
10.12.2017 09:00:00 4,4 3,8 1,8 5,9 10,5 13 7 35 19 ZZO 994,5 6 0 2,3
10.12.2017 08:00:00 2,0 1,4 0,9 5,9 10,5 18 10 38 21 ZO 996,5 6 0 1,6
10.12.2017 07:00:00 1,2 0,5 0,8 5,9 10,5 25 14 42 23 OZO 998,8 3,8 0 1,8
10.12.2017 06:00:00 1,0 0,1 0,7 6,0 10,5 28 15 44 24 OZO 1000,9 12 0 2,0
10.12.2017 05:00:00 1,2 0,0 0,4 6,0 10,4 27 14 39 21 ZO 1003,6 6 0 0,2
10.12.2017 04:00:00 1,4 -0,8 0,5 6,0 10,5 21 11 35 19 ZO 1006,6 20 0 0,0
10.12.2017 03:00:00 2,0 -1,6 1,0 6,0 10,5 18 10 28 15 ZO 1008,7 20 0 0,0
10.12.2017 02:00:00 1,5 -1,1 0,8 6,0 10,5 11 6 25 14 OZO 1010,6 20 0 0,0

tt = temperatuur
td = dauwpunt
tt 5cm = temperatuur 5cm
tt -20cm = temperatuur -20cm
tt -100cm = temperatuur -100cm
ff = windsnelheid
fx = windstoten
dd = windrichting
ppp = luchtdruk
vv = zicht
sd = Zonneschijnduur
rr = neerslag

Weerstations in de omgeving